Istanbul, Turkey

12:11 PM +03 on May 25, 2017 (GMT +0300)
Ataturk

Weather History for LTBA - December, 2014

Change the Weather History Date:

Tuesday, December 9, 2014

  Actual Average Record
Temperature  
Mean Temperature 54 °F -  
Max Temperature 57 °F 48 °F 62 °F (2010)
Min Temperature 50 °F 40 °F 33 °F (1998)
Degree Days  
Heating Degree Days 12    
Growing Degree Days 4 (Base 50)    
Moisture  
Dew Point 50 °F    
Average Humidity 90    
Maximum Humidity 100    
Minimum Humidity 79    
Precipitation  
Precipitation 0.00 in - - ()
Sea Level Pressure  
Sea Level Pressure 29.73 in    
Wind  
Wind Speed 13 mph ()    
Max Wind Speed 21 mph    
Max Gust Speed -    
Visibility 4.5 miles    
Events      
Averages and records for this station are not official NWS values.
T = Trace of Precipitation, MM = Missing Value Source: Averaged Metar Reports

Daily Weather History Graph

Daily Weather History Graph

Search for Another Location

Airport or City:

Trip Planner

Search our weather history database for the weather conditions in past years. The results will help you decide how hot, cold, wet, or windy it might be!

Date:

Astronomy

Dec. 09, 2014 Rise Set
Actual Time 7:17 AM EET 4:36 PM EET
Civil Twilight 6:46 AM EET 5:07 PM EET
Nautical Twilight 6:12 AM EET 5:41 PM EET
Astronomical Twilight 5:38 AM EET 6:15 PM EET
Moon 7:37 PM EET (12/9) 9:16 AM EET (12/9)
Length of Visible Light 10h 20m
Length of Day
9h 18m
Waning Gibbous, 91% of the Moon is Illuminated
Dec 9
Waning Gibbous
Dec 14
Last Quarter
Dec 22
New
Dec 28
First Quarter
Jan 5
Full

Hourly Weather History & Observations

Time (EET) Temp. Dew Point Humidity Pressure Visibility Wind Dir Wind Speed Gust Speed Precip Events Conditions
12:20 AM 51.8 °F 50.0 °F 94% 29.77 in 3.7 mi North 10.4 mph - N/A   Mostly Cloudy
12:50 AM 51.8 °F 50.0 °F 94% 29.77 in 3.7 mi NNW 12.7 mph - N/A   Mostly Cloudy
1:20 AM 51.8 °F 50.0 °F 94% 29.77 in 3.7 mi North 11.5 mph - N/A   Mostly Cloudy
1:50 AM 51.8 °F 50.0 °F 94% 29.77 in 3.7 mi North 10.4 mph - N/A   Mostly Cloudy
2:00 AM 52 °F 50 °F 89% 29.78 in 4 mi North 11.5 mph - -   Mist
2:20 AM 51.8 °F 50.0 °F 94% 29.77 in 3.7 mi North 10.4 mph - N/A   Mostly Cloudy
2:50 AM 51.8 °F 50.0 °F 94% 29.77 in 3.7 mi North 10.4 mph - N/A   Mostly Cloudy
3:20 AM 51.8 °F 50.0 °F 94% 29.74 in 3.7 mi North 9.2 mph - N/A   Mostly Cloudy
3:50 AM 51.8 °F 50.0 °F 94% 29.74 in 3.7 mi North 10.4 mph - N/A   Mostly Cloudy
4:20 AM 51.8 °F 50.0 °F 94% 29.74 in 3.7 mi North 10.4 mph - N/A   Mostly Cloudy
4:50 AM 51.8 °F 50.0 °F 94% 29.74 in 3.7 mi North 13.8 mph - N/A   Mostly Cloudy
5:00 AM 51 °F 50 °F 93% 29.74 in 4 mi North 13.8 mph - -   Mist
5:20 AM 50.0 °F 50.0 °F 100% 29.74 in 3.7 mi North 10.4 mph - N/A   Mostly Cloudy
5:50 AM 51.8 °F 50.0 °F 94% 29.71 in 3.7 mi North 13.8 mph - N/A   Mostly Cloudy
6:20 AM 51.8 °F 50.0 °F 94% 29.71 in 2.8 mi North 15.0 mph - N/A   Mostly Cloudy
6:50 AM 51.8 °F 50.0 °F 94% 29.71 in 3.7 mi North 16.1 mph - N/A   Scattered Clouds
7:20 AM 51.8 °F 50.0 °F 94% 29.71 in 3.7 mi North 16.1 mph - N/A   Scattered Clouds
7:50 AM 51.8 °F 50.0 °F 94% 29.71 in 3.7 mi North 16.1 mph - N/A   Scattered Clouds
8:00 AM 52 °F 49 °F 87% 29.73 in 4 mi North 16.1 mph - -   Mist
8:20 AM 51.8 °F 50.0 °F 94% 29.71 in 2.5 mi North 15.0 mph - N/A   Scattered Clouds
8:50 AM 51.8 °F 50.0 °F 94% 29.71 in 3.7 mi North 15.0 mph - N/A   Scattered Clouds
9:20 AM 53.6 °F 50.0 °F 88% 29.71 in 6.2 mi North 13.8 mph - N/A   Mostly Cloudy
9:50 AM 55.4 °F 50.0 °F 82% 29.71 in 4.3 mi North 15.0 mph - N/A   Mostly Cloudy
10:20 AM 55.4 °F 50.0 °F 82% 29.71 in 4.3 mi North 16.1 mph - N/A   Mostly Cloudy
10:50 AM 55.4 °F 51.8 °F 88% 29.71 in 5.0 mi North 13.8 mph - N/A   Mostly Cloudy
11:00 AM 56 °F 51 °F 79% 29.72 in 5 mi North 13.8 mph - -   Mist
11:20 AM 57.2 °F 51.8 °F 82% 29.71 in 5.0 mi NNW 13.8 mph - N/A   Mostly Cloudy
11:50 AM 57.2 °F 51.8 °F 82% 29.68 in 5.0 mi North 13.8 mph - N/A   Mostly Cloudy
12:20 PM 57.2 °F 51.8 °F 82% 29.68 in 4.3 mi North 13.8 mph - N/A   Mostly Cloudy
12:50 PM 57.2 °F 51.8 °F 82% 29.68 in - North 13.8 mph - N/A   Clear
1:20 PM 57.2 °F 51.8 °F 82% 29.68 in - North 16.1 mph - N/A   Clear
1:50 PM 55.4 °F 50.0 °F 82% 29.68 in - North 16.1 mph - N/A   Clear
2:00 PM 56 °F 52 °F 80% 29.71 in 6 mi North 16.1 mph - -   Partly Cloudy
2:20 PM 55.4 °F 51.8 °F 88% 29.68 in - North 16.1 mph - N/A   Clear
2:50 PM 55.4 °F 51.8 °F 88% 29.68 in - North 19.6 mph - N/A   Clear
3:20 PM 53.6 °F 50.0 °F 88% 29.68 in 4.3 mi North 17.3 mph - N/A   Unknown
3:50 PM 53.6 °F 50.0 °F 88% 29.71 in 4.3 mi North 17.3 mph - N/A   Mostly Cloudy
4:20 PM 53.6 °F 50.0 °F 88% 29.71 in 4.3 mi North 16.1 mph - N/A   Mostly Cloudy
4:50 PM 53.6 °F 50.0 °F 88% 29.71 in 6.2 mi North 15.0 mph - N/A   Mostly Cloudy
5:00 PM 53 °F 50 °F 85% 29.73 in 6 mi North 15.0 mph - -   Partly Cloudy
5:20 PM 53.6 °F 50.0 °F 88% 29.71 in 6.2 mi North 17.3 mph - N/A   Mostly Cloudy
5:50 PM 53.6 °F 50.0 °F 88% 29.74 in 5.0 mi North 19.6 mph - N/A   Mostly Cloudy
6:20 PM 53.6 °F 50.0 °F 88% 29.74 in 4.3 mi North 17.3 mph - N/A   Mostly Cloudy
6:50 PM 53.6 °F 50.0 °F 88% 29.74 in 5.0 mi North 19.6 mph - N/A   Mostly Cloudy
7:20 PM 53.6 °F 50.0 °F 88% 29.74 in 5.0 mi NNW 18.4 mph - N/A   Mostly Cloudy
7:50 PM 51.8 °F 50.0 °F 94% 29.74 in 5.0 mi NNW 16.1 mph - N/A   Mostly Cloudy
8:00 PM 53 °F 49 °F 83% 29.74 in 5 mi NNW 16.1 mph - -   Mist
8:20 PM 51.8 °F 50.0 °F 94% 29.74 in 5.0 mi North 17.3 mph - N/A   Mostly Cloudy
8:50 PM 51.8 °F 50.0 °F 94% 29.74 in 4.3 mi North 17.3 mph - N/A   Mostly Cloudy
9:20 PM 51.8 °F 50.0 °F 94% 29.74 in 4.3 mi NNW 18.4 mph - N/A   Mostly Cloudy
9:50 PM 51.8 °F 50.0 °F 94% 29.77 in 6.2 mi NNW 19.6 mph - N/A   Mostly Cloudy
10:20 PM 51.8 °F 50.0 °F 94% 29.77 in 6.2 mi North 16.1 mph - N/A   Mostly Cloudy
10:50 PM 51.8 °F 50.0 °F 94% 29.77 in 6.2 mi NNW 18.4 mph - N/A   Mostly Cloudy
11:00 PM 51 °F 49 °F 90% 29.80 in 6 mi NNW 18.4 mph - -   Partly Cloudy
11:20 PM 50.0 °F 48.2 °F 94% 29.80 in 6.2 mi NNW 19.6 mph - N/A   Mostly Cloudy
11:50 PM 50.0 °F 48.2 °F 94% 29.80 in 4.3 mi NNW 20.7 mph - N/A   Mostly Cloudy